Weather History for Westfield, MA

Change the Weather History Date:

Wednesday, November 28, 2012

  Actual Average Record
Temperature  
Mean Temperature 32 °F -  
Max Temperature 39 °F 43 °F 66 °F (2011)
Min Temperature 24 °F 26 °F 5 °F (2002)
Degree Days  
Heating Degree Days 34    
Moisture  
Dew Point 25 °F    
Average Humidity 73    
Maximum Humidity 92    
Minimum Humidity 43    
Precipitation  
Precipitation 0.00 in - - ()
Sea Level Pressure  
Sea Level Pressure 30.20 in    
Wind  
Wind Speed 5 mph (NNW)    
Max Wind Speed 10 mph    
Max Gust Speed -    
Visibility 9 miles    
Events      
Averages and records for this station are not official NWS values.
T = Trace of Precipitation, MM = Missing Value Source: NWS Daily Summary

Daily Weather History Graph

Daily Weather History Graph

Search for Another Location

Airport:

Trip Planner

Search our weather history database for the weather conditions in past years. The results will help you decide how hot, cold, wet, or windy it might be!

Date:

Astronomy

Nov. 28, 2012 Rise Set
Actual Time 6:57 AM EST 4:20 PM EST
Civil Twilight 6:25 AM EST 4:51 PM EST
Nautical Twilight 5:51 AM EST 5:26 PM EST
Astronomical Twilight 5:17 AM EST 6:00 PM EST
Moon 4:33 PM EST (11/28) 6:52 AM EST (11/28)
Length of Visible Light 10h 25m
Length of Day
9h 23m
Full, 100% of the Moon is Illuminated
Nov 28
Full
Dec 6
Last Quarter
Dec 13
New
Dec 20
First Quarter
Dec 28
Full

Hourly Weather History & Observations

Time (EST) Temp. Windchill Dew Point Humidity Pressure Visibility Wind Dir Wind Speed Gust Speed Precip Events Conditions
12:53 AM 33.1 °F 30.0 °F 30.9 °F 92% 30.22 in 4.0 mi North 3.5 mph - N/A   Overcast
1:43 AM 33.8 °F 29.6 °F 30.2 °F 87% 30.20 in 4.0 mi North 4.6 mph - N/A   Overcast
1:53 AM 33.1 °F 28.7 °F 30.9 °F 92% 30.22 in 4.0 mi North 4.6 mph - N/A   Overcast
2:25 AM 33.8 °F 28.6 °F 30.2 °F 87% 30.20 in 5.0 mi NNE 5.8 mph - N/A   Overcast
2:43 AM 33.8 °F 27.7 °F 30.2 °F 87% 30.19 in 7.0 mi NNE 6.9 mph - N/A   Overcast
2:53 AM 33.1 °F 26.9 °F 30.0 °F 89% 30.21 in 7.0 mi NNE 6.9 mph - N/A   Overcast
3:53 AM 32.0 °F 24.2 °F 28.9 °F 88% 30.22 in 8.0 mi North 9.2 mph - N/A   Overcast
4:16 AM 32.0 °F 24.8 °F 28.4 °F 87% 30.20 in 10.0 mi North 8.1 mph - N/A   Overcast
4:31 AM 33.8 °F 29.6 °F 28.4 °F 81% 30.21 in 10.0 mi North 4.6 mph - N/A   Overcast
4:53 AM 32.0 °F 27.5 °F 28.0 °F 85% 30.23 in 10.0 mi NNE 4.6 mph - N/A   Overcast
5:53 AM 30.9 °F 26.2 °F 27.0 °F 85% 30.23 in 10.0 mi NNW 4.6 mph - N/A   Overcast
6:53 AM 30.0 °F 26.5 °F 26.1 °F 85% 30.22 in 10.0 mi North 3.5 mph - N/A   Mostly Cloudy
7:53 AM 30.0 °F 25.2 °F 26.1 °F 85% 30.23 in 10.0 mi NNW 4.6 mph - N/A   Scattered Clouds
8:53 AM 33.1 °F 30.0 °F 26.1 °F 75% 30.23 in 10.0 mi North 3.5 mph - N/A   Partly Cloudy
9:53 AM 36.0 °F 33.3 °F 27.0 °F 70% 30.22 in 10.0 mi North 3.5 mph - N/A   Clear
10:53 AM 37.9 °F - 27.0 °F 65% 30.20 in 10.0 mi Calm Calm - N/A   Clear
11:53 AM 39.0 °F - 23.0 °F 53% 30.17 in 10.0 mi Calm Calm - N/A   Scattered Clouds
12:53 PM 39.9 °F 35.1 °F 19.0 °F 43% 30.15 in 10.0 mi NNW 6.9 mph - N/A   Mostly Cloudy
1:53 PM 39.9 °F 33.4 °F 19.9 °F 45% 30.14 in 10.0 mi West 10.4 mph - N/A   Mostly Cloudy
2:53 PM 39.0 °F 33.4 °F 19.0 °F 45% 30.14 in 10.0 mi West 8.1 mph - N/A   Mostly Cloudy
3:53 PM 37.9 °F 30.9 °F 19.0 °F 47% 30.15 in 10.0 mi WNW 10.4 mph - N/A   Overcast
4:53 PM 37.0 °F 33.3 °F 19.0 °F 48% 30.17 in 10.0 mi WNW 4.6 mph - N/A   Mostly Cloudy
5:53 PM 34.0 °F 31.0 °F 19.0 °F 54% 30.19 in 10.0 mi West 3.5 mph - N/A   Clear
6:53 PM 30.0 °F - 21.0 °F 69% 30.20 in 10.0 mi Calm Calm - N/A   Clear
7:53 PM 26.1 °F 20.5 °F 19.0 °F 75% 30.20 in 10.0 mi WSW 4.6 mph - N/A   Clear
8:53 PM 25.0 °F - 19.0 °F 78% 30.22 in 10.0 mi Calm Calm - N/A   Clear
9:53 PM 24.1 °F - 19.0 °F 81% 30.20 in 10.0 mi Calm Calm - N/A   Clear
10:53 PM 28.0 °F 21.7 °F 19.9 °F 72% 30.20 in 10.0 mi WSW 5.8 mph - N/A   Clear
11:53 PM 30.9 °F 23.5 °F 21.0 °F 67% 30.22 in 10.0 mi WSW 8.1 mph - N/A   Clear